Abakan, Russia

7:34 AM +07 on November 19, 2019 (GMT +0700)
Abakan

Weather History for UNAA - September, 2019

Change the Weather History Date:

Saturday, September 21, 2019

  Actual Average (WUND) Record (WUND)
Temperature  
Mean Temperature 52 °F -  
Max Temperature 62 °F - - (-1)
Min Temperature 42 °F - - (-1)
Degree Days  
Heating Degree Days 13    
Growing Degree Days 2 (Base 50)    
Moisture  
Dew Point 47 °F    
Average Humidity 71    
Maximum Humidity 100    
Minimum Humidity 48    
Precipitation  
Precipitation 0.00 in - - ()
Sea Level Pressure  
Sea Level Pressure 30.07 in    
Wind  
Wind Speed 3 mph ()    
Max Wind Speed 7 mph    
Max Gust Speed -    
Visibility 5.9 miles    
Events Rain    
Averages and records for this station are not official NWS values.
T = Trace of Precipitation, MM = Missing Value Source: Averaged Metar Reports

Daily Weather History Graph

Daily Weather History Graph

Search for Another Location

Airport or City:

Astronomy

Sep. 21, 2019 Rise Set
Actual Time 6:37 AM +07 6:57 PM +07
Civil Twilight 6:02 AM +07 7:32 PM +07
Nautical Twilight 5:20 AM +07 8:14 PM +07
Astronomical Twilight 4:35 AM +07 8:57 PM +07
Moon 10:13 PM +07 (9/21) 2:07 PM +07 (9/21)
Length of Visible Light 13h 30m
Length of Day
12h 19m
Waning Gibbous, 60% of the Moon is Illuminated
Sep 21
Waning Gibbous
Sep 22
Last Quarter
Sep 29
New
Oct 5
First Quarter
Oct 14
Full

Hourly Weather History & Observations

Time (+07) Temp. Windchill Dew Point Humidity Pressure Visibility Wind Dir Wind Speed Gust Speed Precip Events Conditions
12:00 AM 53.6 °F - 46.4 °F 77% 29.92 in - East 2.2 mph - N/A   Clear
12:30 AM 57.2 °F - 48.2 °F 72% 29.92 in - South 4.5 mph - N/A   Clear
1:00 AM 59.0 °F - 50.0 °F 72% 29.92 in - South 6.7 mph - N/A   Clear
1:30 AM 59.0 °F - 50.0 °F 72% 29.92 in - South 6.7 mph - N/A   Clear
2:00 AM 60.8 °F - 50.0 °F 68% 29.92 in - SW 2.2 mph - N/A   Clear
2:30 AM 60.8 °F - 48.2 °F 63% 29.95 in - Variable 2.2 mph - N/A   Clear
3:00 AM 60.8 °F - 48.2 °F 63% 29.95 in - Calm Calm - N/A   Clear
3:30 AM 60.8 °F - 48.2 °F 63% 29.95 in - SW 2.2 mph - N/A   Clear
4:30 AM 59.0 °F - 48.2 °F 67% 29.98 in - North 4.5 mph - N/A   Clear
5:00 AM 59.0 °F - 48.2 °F 67% 29.98 in - SSW 4.5 mph - N/A   Clear
5:30 AM 59.0 °F - 48.2 °F 67% 30.01 in - SSW 6.7 mph - N/A   Clear
6:00 AM 60.8 °F - 48.2 °F 63% 30.01 in - WSW 6.7 mph - N/A   Clear
6:30 AM 57.2 °F - 48.2 °F 72% 30.01 in - Calm Calm - N/A   Clear
7:00 AM 57.2 °F - 50.0 °F 77% 30.04 in - NNW 4.5 mph - N/A   Clear
7:30 AM 59.0 °F - 46.4 °F 63% 30.04 in - NNW 2.2 mph - N/A   Clear
8:00 AM 57.2 °F - 48.2 °F 72% 30.04 in - SW 2.2 mph - N/A   Clear
8:30 AM 60.8 °F - 46.4 °F 59% 30.06 in 5.6 mi SW 4.5 mph - N/A Rain Light Rain Showers
9:00 AM 57.2 °F - 48.2 °F 72% 30.06 in 6.2 mi WNW 4.5 mph - N/A Rain Light Rain Showers
9:30 AM 57.2 °F - 48.2 °F 72% 30.06 in 6.2 mi Variable 2.2 mph - N/A Rain Light Rain Showers
10:00 AM 55.4 °F - 46.4 °F 72% 30.09 in 6.2 mi North 4.5 mph - N/A Rain Light Rain Showers
10:30 AM 53.6 °F - 46.4 °F 77% 30.09 in 5.6 mi Variable 2.2 mph - N/A Rain Light Rain Showers
11:00 AM 55.4 °F - 44.6 °F 67% 30.09 in 6.2 mi SSW 6.7 mph - N/A Rain Light Rain Showers
11:30 AM 55.4 °F - 46.4 °F 72% 30.09 in 6.2 mi WSW 6.7 mph - N/A Rain Light Rain Showers
12:00 PM 55.4 °F - 48.2 °F 77% 30.09 in 6.2 mi WNW 2.2 mph - N/A Rain Light Rain Showers
12:30 PM 55.4 °F - 50.0 °F 82% 30.12 in 6.2 mi Calm Calm - N/A Rain Light Rain Showers
1:00 PM 57.2 °F - 50.0 °F 77% 30.09 in 6.2 mi NE 2.2 mph - N/A Rain Light Rain Showers
1:30 PM 57.2 °F - 50.0 °F 77% 30.12 in 6.2 mi East 2.2 mph - N/A Rain Light Rain Showers
2:00 PM 55.4 °F - 50.0 °F 82% 30.09 in 6.2 mi ENE 6.7 mph - N/A   Scattered Clouds
2:30 PM 57.2 °F - 50.0 °F 77% 30.12 in 6.2 mi East 4.5 mph - N/A   Scattered Clouds
3:00 PM 57.2 °F - 51.8 °F 82% 30.12 in 6.2 mi ENE 4.5 mph - N/A   Scattered Clouds
3:30 PM 60.8 °F - 50.0 °F 68% 30.12 in - SE 6.7 mph - N/A   Clear
4:00 PM 60.8 °F - 48.2 °F 63% 30.12 in - SE 4.5 mph - N/A   Clear
4:30 PM 62.6 °F - 44.6 °F 52% 30.12 in - SW 4.5 mph - N/A   Clear
5:00 PM 62.6 °F - 42.8 °F 48% 30.12 in - ESE 2.2 mph - N/A   Clear
5:30 PM 60.8 °F - 44.6 °F 55% 30.12 in - East 2.2 mph - N/A   Clear
6:00 PM 59.0 °F - 44.6 °F 59% 30.15 in - NNE 2.2 mph - N/A   Clear
6:30 PM 59.0 °F - 41.0 °F 51% 30.15 in - Calm Calm - N/A   Clear
7:00 PM 57.2 °F - 42.8 °F 59% 30.15 in 5.6 mi Calm Calm - N/A   Unknown
7:30 PM 55.4 °F - 42.8 °F 63% 30.15 in - East 2.2 mph - N/A   Clear
8:00 PM 51.8 °F - 44.6 °F 76% 30.15 in - Calm Calm - N/A   Clear
8:30 PM 51.8 °F - 44.6 °F 76% 30.18 in - Variable 2.2 mph - N/A   Clear
9:30 PM 50.0 °F - 46.4 °F 87% 30.18 in - SW 4.5 mph - N/A   Clear
10:00 PM 46.4 °F 44.4 °F 44.6 °F 93% 30.21 in 5.6 mi WNW 4.5 mph - N/A   Unknown
10:30 PM 44.6 °F - 42.8 °F 93% 30.21 in 5.6 mi Calm Calm - N/A   Unknown
11:00 PM 42.8 °F - 41.0 °F 93% 30.21 in 5.0 mi Calm Calm - N/A   Unknown
11:30 PM 42.8 °F - 42.8 °F 100% 30.21 in 5.0 mi Calm Calm - N/A   Unknown